Wind_Speed
16 17 19 22 24 26 27 29 32 34 36 38 40 43 44 45 47 50 52 49 50 49 52 51 50 50 51 52 53 53 51 50 53 51 48 51 50 52 51 49 53 48 51
20 22 25 26 29 31 34 36 40 43 45 47 48 50 48 48 49 49 50 49 48 49 50 51 51 52 53 53 54 54 52 50 52 53 50 51 49 49 50 53 54 52 51
30 33 35 36 37 39 38 42 43 46 46 45 46 47 47 47 47 46 46 47 49 51 52 55 56 56 56 55 55 55 53 51 51 51 51 51 53 55 56 57 54 54 52
41 40 39 41 38 39 42 43 43 42 43 43 44 45 45 46 45 45 45 46 48 49 52 55 57 57 57 56 56 56 54 53 52 51 51 49 52 56 59 60 58 53 50
35 36 39 39 38 41 41 42 43 44 45 47 48 48 49 50 50 50 51 51 52 52 52 51 53 54 55 56 56 56 54 52 51 51 50 48 53 58 60 57 52 49 44
38 40 42 44 45 45 45 45 45 47 48 50 51 53 53 54 55 57 57 58 58 58 57 55 53 52 51 50 50 49 48 48 49 48 48 52 53 55 55 50 44 39 33
44 44 44 45 45 45 46 48 48 49 52 53 55 57 59 58 58 58 59 60 60 57 54 53 53 50 47 45 44 45 45 45 45 47 49 49 52 51 51 49 35 27 17
41 42 42 44 46 48 49 51 52 52 53 53 51 49 50 51 50 52 53 55 56 55 51 50 51 50 50 50 50 50 50 49 46 46 47 49 49 47 39 29 22 18 18
43 45 46 47 47 48 49 50 50 52 52 51 50 51 51 52 53 54 54 52 53 53 51 49 51 53 54 55 55 53 51 49 46 45 44 44 44 36 20 17 16 15 14
45 45 47 50 52 53 54 56 57 57 57 57 57 59 60 59 59 57 56 53 52 52 51 51 50 53 53 56 55 51 47 43 42 41 33 31 22 15 17 16 13 13 17
53 55 55 53 52 52 53 51 52 52 51 50 51 52 55 57 57 57 56 56 56 54 50 49 51 54 55 53 44 40 38 36 32 27 19 14 15 15 12 11 13 12 13
56 55 55 54 53 53 53 53 52 51 50 49 50 50 52 55 59 61 61 60 60 55 49 48 45 42 38 35 30 27 24 21 17 13 13 11 8 6 5 6 9 11 14
56 55 55 53 52 51 52 50 48 47 47 46 47 48 49 52 54 55 55 54 49 48 45 36 30 26 22 15 11 6 5 6 8 8 7 5 5 6 8 9 12 16 19
58 56 55 54 52 50 49 48 47 45 44 45 48 49 51 52 51 48 46 43 39 31 24 17 10 8 5 3 5 5 4 4 5 5 3 3 6 9 13 16 20 23 27
59 59 59 57 54 52 49 47 46 45 46 46 47 47 47 45 39 34 30 21 10 6 6 4 4 4 3 5 6 6 5 4 2 2 4 7 12 16 20 24 27 31 34
61 59 58 55 52 50 47 45 45 43 43 44 44 40 33 29 20 12 7 7 6 5 6 4 4 5 4 3 4 4 3 3 5 9 13 16 20 24 27 31 34 37 39
56 53 50 49 49 46 44 43 43 41 41 38 27 18 8 8 7 7 7 7 5 3 3 1 2 3 4 2 3 4 6 9 11 15 18 22 26 30 32 35 37 39 41
51 47 45 45 45 43 41 40 39 38 35 20 11 13 12 10 9 7 10 10 5 6 3 3 5 2 1 4 7 10 13 16 18 21 25 29 31 33 35 37 40 40 40
48 45 44 45 43 42 38 37 39 34 26 19 17 13 12 13 16 16 10 7 9 4 7 5 3 5 8 11 14 17 19 21 24 28 31 33 35 36 38 39 39 38 37
46 45 45 43 41 41 38 36 36 30 28 22 19 19 21 20 18 13 10 12 7 9 6 6 7 11 14 16 19 21 24 27 30 32 34 35 36 37 37 36 34 33 33
44 43 43 43 41 41 37 36 32 31 29 26 23 25 25 22 17 13 12 9 10 9 9 10 13 15 19 23 25 27 29 31 33 34 35 36 34 32 30 30 31 31 32
48 46 47 44 41 40 36 34 32 30 28 27 24 25 24 22 17 15 12 11 12 13 14 16 18 21 26 28 29 31 32 33 34 34 33 30 28 27 27 27 27 28 29
51 51 45 40 38 37 34 33 31 27 27 25 23 26 24 20 16 13 13 14 15 16 19 20 22 27 31 31 32 33 34 34 33 30 28 26 25 24 24 25 27 28 29
48 39 35 34 34 31 31 30 26 25 25 24 25 24 24 19 15 16 16 17 17 21 23 24 28 32 32 33 33 34 34 32 29 26 24 23 23 23 25 26 27 28 29
32 30 30 29 26 26 26 21 23 25 25 23 24 26 22 17 18 19 20 20 22 25 26 29 31 32 33 33 34 34 32 29 26 24 23 23 23 25 26 27 27 28 29
25 25 24 23 21 23 22 23 25 23 22 24 27 25 23 24 26 25 24 25 26 28 29 30 32 33 34 34 33 31 28 25 24 23 24 24 25 26 27 28 28 28 29
Wind_Direction
261 265 269 270 269 268 267 267 270 271 272 275 276 279 281 285 288 289 291 290 290 289 289 288 287 287 287 288 290 293 294 291 288 290 279 279 276 281 280 279 280 281 281
280 279 278 278 279 279 279 281 280 280 279 281 283 284 285 285 286 286 287 287 286 287 287 287 288 288 286 286 287 289 291 290 287 285 279 278 276 273 280 280 283 284 281
292 289 287 285 285 285 286 284 282 281 281 284 286 287 286 287 287 286 285 285 284 283 283 284 286 286 286 285 284 286 288 286 284 281 278 278 274 276 280 282 280 281 277
296 295 294 292 293 295 291 291 290 290 290 289 289 289 289 289 289 289 288 288 288 287 286 285 285 285 285 285 285 286 287 286 284 281 280 274 275 278 280 280 283 283 280
291 291 290 292 294 291 291 291 291 290 289 289 288 288 289 290 293 292 292 291 290 289 289 288 287 286 285 285 286 287 287 285 282 280 280 279 277 276 280 281 282 283 284
286 289 291 289 288 289 289 289 289 289 290 290 291 291 291 292 293 293 292 291 289 289 290 290 290 288 287 285 286 287 286 285 283 281 278 279 281 278 278 281 285 284 278
285 286 286 284 283 283 284 285 286 287 289 291 292 292 293 294 292 291 289 288 287 287 288 289 289 288 287 287 287 287 287 286 284 281 279 280 278 282 284 284 276 272 255
286 288 289 288 286 286 286 287 289 290 290 290 290 292 292 293 295 296 293 290 289 286 286 287 286 285 285 286 285 286 287 285 282 280 278 278 279 279 277 270 260 234 219
294 295 296 297 297 298 298 299 300 300 299 299 295 294 294 293 294 295 294 294 292 287 284 284 284 283 284 284 284 284 287 283 280 277 277 276 276 275 248 228 208 224 243
297 297 298 299 298 298 297 297 297 297 295 293 293 293 292 291 290 289 289 287 287 289 287 285 286 286 284 283 284 287 285 280 275 275 272 271 264 241 211 219 243 266 280
302 303 304 305 304 302 302 301 300 299 297 294 292 290 288 286 283 281 282 283 284 284 286 288 286 286 286 282 279 278 275 273 271 264 250 226 208 212 232 258 278 283 280
303 303 303 303 302 301 301 301 301 300 299 296 293 291 289 288 287 286 285 285 286 288 289 288 286 284 279 274 272 269 266 261 249 223 212 215 224 241 271 271 276 289 293
300 301 301 301 302 301 301 301 300 300 299 297 293 292 292 291 290 290 289 290 288 287 284 280 275 270 267 262 251 231 177 157 153 168 196 225 247 270 283 304 313 314 312
300 300 300 300 300 299 298 298 297 295 295 297 295 294 293 290 287 289 291 288 287 281 273 259 233 159 123 95 70 66 79 153 170 182 220 288 306 312 319 318 314 309 304
298 298 299 299 299 298 297 296 294 293 294 297 298 291 292 290 289 287 284 277 258 194 132 101 77 73 116 131 136 126 124 118 105 25 347 321 319 317 313 309 304 301 299
297 297 298 297 296 294 293 290 293 296 297 299 299 291 289 287 279 259 198 164 152 110 81 100 111 87 59 72 106 105 83 30 347 333 325 320 315 309 305 302 302 302 301
297 298 297 297 295 290 289 289 293 296 301 299 291 283 251 211 185 179 171 138 131 133 133 142 321 260 181 111 42 8 344 329 319 317 314 310 308 307 305 304 305 306 306
292 292 292 294 297 294 289 288 292 293 295 263 243 250 241 223 203 195 189 191 169 203 259 248 205 184 351 333 327 321 315 312 312 313 313 312 311 310 310 312 312 312 312
289 289 290 294 295 295 289 287 291 293 263 235 227 239 228 229 221 215 210 189 228 220 223 218 258 302 309 310 310 309 309 311 315 316 317 317 316 315 315 315 315 314 313
292 291 291 293 293 292 288 282 285 276 240 226 220 224 228 222 232 205 198 232 244 222 236 268 291 304 308 310 312 313 315 317 318 317 316 315 316 317 318 318 318 319 318
291 293 291 292 289 290 282 276 277 256 236 226 212 227 231 233 217 211 226 228 223 245 265 285 296 304 316 318 315 316 316 316 316 317 317 317 318 318 319 321 322 321 322
290 290 292 288 283 284 274 271 263 244 233 221 222 234 229 225 222 217 220 228 251 266 286 295 306 317 313 312 311 312 314 316 316 316 317 318 318 318 319 321 322 323 324
289 288 286 280 277 274 267 261 248 234 221 220 230 233 236 230 202 213 230 249 266 289 298 303 310 309 306 306 310 311 313 313 314 314 314 314 314 315 318 321 322 325 326
287 279 273 271 272 266 259 249 233 217 214 227 234 234 231 210 210 231 244 260 272 283 294 301 301 301 304 307 307 309 311 311 310 309 309 309 310 313 317 319 323 324 325
277 273 268 268 263 257 240 222 205 211 223 228 225 227 213 212 231 242 254 263 277 283 285 289 297 300 303 304 306 307 307 305 304 304 305 307 309 311 314 317 319 321 322
274 269 266 261 250 227 209 202 212 222 223 220 224 217 216 226 239 250 259 267 277 285 291 294 297 299 301 302 303 302 299 297 297 300 303 306 308 308 310 312 314 315 316
Height
3130 3130 3129 3129 3128 3128 3127 3125 3124 3123 3121 3119 3117 3115 3112 3109 3106 3102 3099 3095 3091 3087 3083 3081 3078 3076 3072 3069 3065 3061 3056 3053 3045 3043 3040 3038 3039 3038 3038 3037 3035 3031 3029
3127 3126 3126 3125 3124 3122 3120 3118 3116 3114 3112 3110 3106 3103 3101 3098 3095 3091 3088 3084 3079 3075 3071 3067 3064 3061 3058 3054 3051 3048 3044 3040 3036 3031 3028 3025 3026 3026 3024 3023 3020 3018 3016
3121 3120 3118 3116 3115 3112 3109 3108 3106 3103 3101 3098 3095 3092 3088 3086 3082 3078 3075 3072 3067 3063 3058 3054 3050 3047 3043 3040 3037 3033 3031 3028 3023 3020 3017 3014 3013 3012 3012 3010 3007 3004 3001
3110 3108 3106 3104 3102 3100 3098 3096 3093 3090 3088 3086 3083 3080 3076 3073 3070 3066 3061 3058 3054 3050 3046 3041 3038 3033 3030 3026 3023 3020 3016 3013 3010 3008 3005 3004 3003 3001 2999 2997 2994 2990 2988
3100 3098 3097 3094 3092 3090 3087 3085 3082 3079 3076 3073 3070 3067 3063 3060 3057 3052 3049 3045 3040 3036 3033 3028 3025 3020 3017 3013 3010 3007 3004 3000 2997 2995 2993 2993 2990 2988 2985 2983 2979 2976 2974
3092 3089 3086 3085 3083 3079 3076 3073 3070 3067 3063 3060 3056 3053 3050 3046 3042 3038 3033 3030 3026 3022 3019 3014 3011 3007 3003 2999 2996 2994 2991 2987 2985 2982 2982 2980 2978 2975 2972 2970 2967 2965 2965
3082 3079 3077 3074 3071 3068 3065 3062 3058 3055 3051 3048 3044 3040 3036 3032 3027 3024 3020 3016 3011 3008 3004 3000 2997 2994 2991 2988 2984 2981 2979 2976 2972 2971 2968 2967 2965 2963 2960 2957 2957 2956 2957
3072 3068 3065 3062 3059 3056 3053 3050 3046 3043 3039 3035 3031 3027 3023 3019 3014 3010 3005 3001 2998 2994 2990 2987 2984 2981 2977 2975 2972 2969 2967 2964 2961 2957 2956 2954 2952 2950 2948 2948 2948 2949 2953
3061 3058 3054 3050 3046 3043 3039 3036 3032 3028 3025 3021 3017 3013 3009 3005 3000 2995 2991 2986 2982 2979 2976 2973 2970 2968 2963 2961 2959 2955 2952 2950 2948 2945 2943 2940 2940 2939 2941 2940 2944 2947 2947
3050 3047 3043 3039 3036 3032 3028 3024 3019 3015 3011 3007 3004 2999 2994 2990 2986 2981 2976 2971 2967 2963 2961 2958 2955 2952 2949 2947 2944 2941 2939 2938 2936 2934 2933 2930 2931 2932 2937 2938 2940 2942 2943
3037 3033 3029 3025 3022 3017 3013 3009 3003 2999 2995 2991 2987 2983 2977 2973 2968 2963 2959 2955 2951 2948 2944 2941 2939 2936 2934 2931 2928 2927 2927 2927 2927 2925 2926 2926 2930 2930 2932 2935 2936 2938 2940
3024 3021 3016 3013 3009 3004 2999 2995 2989 2984 2979 2975 2971 2967 2962 2957 2952 2948 2944 2940 2936 2933 2930 2928 2925 2922 2920 2918 2917 2917 2916 2918 2919 2921 2923 2926 2929 2930 2931 2932 2934 2934 2934
3011 3007 3003 3000 2996 2991 2986 2982 2977 2971 2966 2962 2957 2953 2948 2943 2937 2932 2928 2925 2922 2920 2917 2916 2914 2912 2911 2910 2910 2911 2913 2915 2918 2920 2923 2926 2929 2930 2931 2930 2930 2929 2929
2995 2993 2989 2985 2982 2978 2974 2968 2964 2960 2955 2950 2944 2940 2934 2928 2923 2919 2916 2913 2911 2909 2909 2909 2909 2908 2909 2910 2911 2913 2916 2917 2918 2920 2923 2926 2927 2927 2927 2925 2924 2923 2922
2981 2978 2974 2970 2967 2963 2959 2955 2951 2947 2942 2937 2932 2927 2921 2916 2912 2909 2907 2906 2906 2907 2909 2910 2910 2910 2911 2911 2912 2914 2915 2917 2920 2921 2921 2922 2922 2922 2922 2921 2920 2918 2916
2967 2963 2958 2954 2951 2948 2944 2942 2939 2935 2930 2925 2919 2915 2910 2907 2905 2905 2905 2905 2906 2907 2909 2910 2912 2912 2913 2914 2915 2915 2916 2918 2918 2919 2919 2919 2919 2919 2918 2916 2912 2908 2904
2951 2949 2944 2940 2936 2933 2931 2929 2926 2923 2919 2914 2910 2906 2905 2905 2904 2904 2904 2905 2906 2908 2910 2912 2912 2913 2913 2913 2914 2914 2915 2915 2916 2916 2916 2915 2914 2912 2909 2906 2901 2897 2892
2937 2935 2931 2928 2924 2920 2918 2916 2914 2912 2909 2907 2905 2904 2903 2903 2903 2904 2904 2904 2905 2908 2908 2910 2911 2912 2912 2912 2912 2912 2913 2913 2912 2911 2910 2908 2905 2901 2897 2893 2889 2885 2880
2923 2921 2918 2915 2913 2909 2906 2905 2903 2902 2901 2900 2900 2900 2901 2901 2901 2901 2902 2904 2905 2906 2908 2909 2909 2910 2910 2910 2910 2909 2909 2908 2906 2903 2900 2897 2893 2890 2886 2882 2878 2874 2870
2907 2906 2904 2902 2900 2897 2895 2894 2893 2893 2892 2893 2894 2895 2895 2897 2898 2898 2900 2901 2903 2905 2905 2905 2906 2906 2907 2906 2905 2904 2902 2900 2897 2893 2890 2887 2883 2880 2876 2872 2869 2865 2862
2893 2892 2890 2888 2887 2885 2884 2883 2882 2883 2884 2886 2887 2888 2890 2892 2892 2894 2896 2898 2899 2900 2901 2901 2901 2901 2900 2899 2897 2895 2893 2891 2887 2884 2880 2877 2873 2871 2867 2864 2861 2858 2854
2879 2878 2876 2875 2874 2873 2872 2872 2872 2873 2876 2879 2881 2883 2885 2886 2888 2890 2893 2895 2896 2896 2896 2896 2895 2894 2893 2892 2890 2887 2884 2881 2877 2874 2871 2868 2865 2863 2860 2858 2855 2851 2848
2863 2862 2862 2861 2860 2860 2860 2862 2863 2866 2870 2873 2875 2878 2880 2882 2883 2887 2889 2890 2891 2891 2890 2889 2888 2888 2887 2884 2881 2878 2874 2871 2868 2865 2862 2860 2858 2856 2854 2851 2848 2845 2841
2847 2846 2847 2848 2848 2849 2851 2852 2855 2859 2864 2867 2871 2873 2875 2877 2880 2882 2884 2885 2884 2884 2884 2882 2881 2880 2877 2875 2872 2869 2865 2862 2860 2857 2855 2853 2851 2849 2847 2844 2841 2837 2834
2834 2834 2835 2836 2838 2840 2843 2845 2850 2855 2859 2863 2866 2867 2869 2873 2875 2876 2877 2877 2877 2877 2875 2874 2873 2871 2868 2866 2863 2860 2857 2854 2852 2850 2848 2846 2844 2841 2839 2836 2834 2831 2827
2825 2825 2826 2827 2829 2833 2837 2842 2846 2850 2854 2857 2859 2861 2863 2866 2868 2869 2869 2870 2869 2868 2867 2865 2863 2861 2859 2856 2853 2851 2848 2846 2844 2842 2840 2838 2836 2833 2831 2829 2826 2823 2820